Location: eljas
(40.1958°N, 6.8661°W)
Time: 00:12:21
(UTC+02:00)

Daily predictions for brighter satellites

Satellite Brightness Start Highest point End
(mag) Time Altitude Azimuth Time Altitude Azimuth Time Altitude Azimuth
CZ-4 R/B 4.3 00:03:09 10° N 00:08:07 66° WNW 00:11:44 19° SSW
Cosmos 1140 Rocket 3.5 00:07:26 38° S 00:09:18 64° ESE 00:14:30 10° NNE
DELTA 2 DEB (DPAF) 4.2 00:12:04 45° S 00:13:23 76° WSW 00:17:54 10° NNW
SPOT 1/Viking Rocket 4.3 00:11:01 25° SSW 00:13:42 46° W 00:18:40 10° NNW
ISS -0.1 00:11:50 10° NW 00:13:51 15° NNW 00:15:52 10° NNE
Cosmos 1092 Rocket 4.5 00:13:17 36° SE 00:15:04 44° E 00:20:58 10° NNE
Cosmos 1766 3.9 00:11:36 10° NNW 00:15:31 51° W 00:16:35 39° SW
Spot 4 4.2 00:14:33 43° ESE 00:15:36 51° ENE 00:20:14 10° N
Terra 1.8 00:18:03 51° SE 00:19:08 70° ENE 00:23:52 10° N
Cosmos 1758 3.2 00:16:15 10° N 00:20:23 82° E 00:20:47 71° SSE
Cosmos 1842 Rocket 3.7 00:19:09 10° N 00:23:28 54° E 00:23:48 53° E
IGS 5A 3.4 00:23:15 65° ESE 00:23:37 70° ENE 00:27:46 10° N
Nadezhda 4 Rocket 4.0 00:21:15 39° SSE 00:23:43 71° E 00:30:01 10° NNE
COSMOS 2406 3.1 00:27:44 32° SSW 00:30:33 90° WNW 00:36:20 10° NNE
PSLV R/B 4.1 00:27:02 10° W 00:29:41 47° W 00:29:41 47° W
USA 238 DEB 3.7 00:24:11 10° SW 00:31:18 85° WNW 00:38:25 10° NNE
USA 238 3.7 00:24:17 10° SW 00:31:24 86° WNW 00:38:30 10° NNE
Cosmos 1340 4.0 00:33:04 30° ENE 00:33:04 30° ENE 00:35:31 10° NNE
Lacrosse 4 Rocket 4.0 00:29:06 10° W 00:32:04 19° NW 00:35:04 10° N
Cosmos 614 Rocket 3.9 00:31:20 56° SSE 00:32:06 64° ESE 00:37:16 10° NNE
Cosmos 2084 3.4 00:30:31 10° NW 00:34:41 71° WSW 00:34:49 70° SW
Atlas Centaur 2 3.5 00:30:35 10° WSW 00:37:29 36° SSW 00:38:09 35° S
SAR-Lupe-2 4.2 00:40:43 50° W 00:40:43 50° W 00:43:58 10° NNW
Cosmos 1544 3.6 00:37:10 10° N 00:40:19 53° NE 00:40:19 53° NE
DMSP B5D2-2 4.0 00:35:46 10° NNE 00:41:04 83° WNW 00:42:39 47° SSW
Cosmos 1470 3.5 00:38:28 10° N 00:41:39 43° NE 00:41:39 43° NE
Cosmos 2082 Rocket 4.4 00:43:52 11° E 00:43:52 11° E 00:44:15 10° ENE
Cosmos 1805 3.6 00:40:01 10° NNW 00:43:52 58° W 00:43:52 58° W
Cosmos 1943 Rocket 2.6 00:39:07 10° NNW 00:44:29 51° WSW 00:45:51 41° SSW
Cosmos 1655 Rocket 4.4 00:49:33 41° ESE 00:50:28 44° E 00:56:20 10° NNE
Cosmos 1607 4.0 00:49:42 23° SW 00:53:50 76° WNW 01:00:05 10° NNE
Cosmos 1656 Rocket 3.6 00:48:08 10° NNW 00:53:52 90° NE 00:54:49 63° SSE
SL-8 R/B 3.7 00:50:24 10° WNW 00:55:16 74° NNE 00:55:46 67° ENE
Cosmos 2221 3.4 00:53:25 10° N 00:57:00 39° ENE 00:57:00 39° ENE
CZ-4C R/B 2.2 01:01:48 58° ESE 01:01:48 58° ESE 01:07:21 10° NE
Cosmos 2026 Rocket 4.0 01:02:25 53° ESE 01:03:10 57° E 01:09:06 10° NNE
Cosmos 2195 Rocket 4.4 01:03:13 57° SE 01:04:17 67° E 01:10:29 10° NNE
NOSS 3-2 (C) 3.5 01:05:15 56° SE 01:05:36 57° ESE 01:12:01 10° NE
Cosmos 1953 4.1 01:05:37 10° NW 01:08:47 23° W 01:08:59 23° W
COSMOS 2487 3.8 01:11:56 40° NNW 01:11:56 40° NNW 01:14:40 10° N
Meteor 1-24 Rocket 3.9 01:13:37 56° ESE 01:14:04 57° E 01:19:52 10° NNE
Cosmos 1627 Rocket 4.3 01:13:12 63° SSE 01:14:12 80° E 01:20:21 10° N
Cosmos 1707 3.5 01:15:53 51° N 01:15:53 51° N 01:18:54 10° N
CZ-4B R/B 3.5 01:29:40 26° NE 01:29:40 26° NE 01:31:52 10° N
Okean 3 Rocket 4.4 01:32:49 43° WNW 01:32:49 43° WNW 01:36:58 10° N
Cosmos 2228 Rocket 4.0 01:32:00 10° N 01:35:29 40° NE 01:35:29 40° NE
Cosmos 1867 3.8 01:38:17 57° E 01:38:17 57° E 01:43:01 10° NE
Meteor 2-5 Rocket 4.5 01:41:16 40° WSW 01:42:39 47° WNW 01:48:13 10° N
H-2A R/B 4.0 01:43:35 16° WSW 01:44:19 16° W 01:47:26 10° NW
BREEZE-M TANK 4.4 01:22:39 10° SW 01:46:44 55° SSE 01:51:33 10° ENE
USA 234 4.4 01:47:11 27° WSW 01:47:11 27° WSW 01:52:23 10° WNW
Cosmos 2369 3.7 01:41:55 10° NNW 01:47:34 68° ENE 01:47:57 66° E
Cosmos 1417 Rocket 4.3 01:41:45 10° N 01:47:52 76° W 01:48:31 69° SW
NOSS 3-2 (A) 3.8 01:45:53 38° WSW 01:48:15 63° NW 01:54:52 10° NNE
Cosmos 1408 Rocket 4.1 01:50:50 56° NW 01:50:50 56° NW 01:54:37 10° N
ISS 0.1 01:50:09 10° NNW 01:51:22 12° N 01:52:36 10° NNE
Cosmos 1553 Rocket 3.9 01:46:21 10° N 01:52:45 88° E 01:53:31 71° SSE
ALOS 2 3.1 01:56:34 57° N 01:56:34 57° N 02:00:07 10° N
Meteor 2-1 Rocket 4.4 01:49:55 10° NNW 01:55:44 63° W 01:56:04 62° WSW
Terra 4.2 01:56:56 11° W 01:57:20 11° W 01:58:55 10° WNW
Cosmos 468 Rocket 4.2 01:54:07 10° NNW 01:58:54 61° W 01:58:54 61° W
Cosmos 1980 Rocket 4.0 01:59:09 10° N 02:03:39 24° NE 02:06:03 18° E
Cosmos 1814 Rocket 4.3 02:03:40 10° NNW 02:08:26 57° W 02:08:26 57° W
Cosmos 2278 3.7 02:03:39 10° NNW 02:09:07 70° W 02:09:07 70° W
Cosmos 2266 Rocket 3.9 02:16:07 72° SSE 02:16:44 79° E 02:23:10 10° N
Lacrosse 5 2.9 02:12:26 10° NNW 02:17:13 41° NE 02:18:33 34° ENE
Cosmos 2315 Rocket 4.4 02:13:00 10° N 02:19:08 51° ENE 02:20:04 47° ESE
Cosmos 1743 Rocket 4.3 02:20:06 52° NNW 02:20:06 52° NNW 02:23:39 10° N
H-2A R/B 3.8 02:16:02 10° N 02:18:37 33° NNW 02:18:37 33° NNW
S3M 4.2 02:15:12 10° NNW 02:21:13 54° W 02:21:43 52° WSW
Meteor 2-20 4.3 02:22:33 78° SSW 02:23:01 88° W 02:29:14 10° N
Cosmos 1697 Rocket 3.1 02:17:40 10° NNW 02:23:13 52° ENE 02:24:00 49° E
Meteor 2-2 Rocket 4.2 02:19:41 10° N 02:25:27 73° E 02:25:43 71° ESE
Cosmos 2082 Rocket 2.1 02:25:42 87° WNW 02:25:42 87° WNW 02:31:24 10° NNE
Cosmos 724 4.1 02:27:44 83° WSW 02:27:54 85° WNW 02:33:49 10° NNE
Cosmos 2344 3.6 02:26:24 52° SSW 02:28:39 90° WNW 02:37:24 10° NE
Cosmos 1833 Rocket 2.6 02:29:01 76° E 02:29:01 76° E 02:34:27 10° NNE
Cosmos 540 Rocket 4.4 02:26:52 10° N 02:31:43 38° ENE 02:32:21 37° E
Cosmos 1763 Rocket 3.8 02:30:35 10° NNW 02:35:14 59° WNW 02:35:14 59° WNW
Cosmos 1500 Rocket 4.4 02:36:52 47° NNW 02:36:52 47° NNW 02:40:08 10° N
MOS 1-B Rocket 4.4 02:39:06 51° SE 02:41:07 74° ENE 02:47:42 10° N
CENTAUR R/B 2.4 02:42:22 67° SE 02:42:35 68° ESE 02:49:17 10° NE
Cosmos 1656 3.6 02:37:28 10° NNW 02:43:06 82° W 02:43:06 82° W
CZ-4C R/B 4.1 02:46:55 14° W 02:50:34 26° NW 02:55:35 10° NNE
Lacrosse 5 rocket 3.5 02:50:04 10° NNW 02:53:45 27° NE 02:56:40 14° E
Cosmos 1726 4.2 02:53:25 10° NNE 02:55:43 22° ENE 02:55:43 22° ENE
CZ-2C R/B 2.5 02:51:28 10° N 02:57:01 82° WNW 02:57:07 81° W
Cosmos 1437 Rocket 4.2 02:56:03 10° NNW 02:58:26 36° NNW 02:58:26 36° NNW
CZ-4B R/B 4.4 03:03:26 11° WNW 03:03:26 11° WNW 03:03:46 10° NW
Cosmos 332 Rocket 4.2 03:02:37 10° N 03:07:21 56° ENE 03:07:24 56° ENE
Cosmos 1674 4.3 03:09:32 30° NNW 03:09:32 30° NNW 03:11:47 10° N
SL-16 R/B 3.8 03:04:27 10° N 03:09:25 30° ENE 03:13:14 15° ESE
Cosmos 2058 3.6 03:13:11 52° NNE 03:13:11 52° NNE 03:16:25 10° N
Cosmos 968 Rocket 3.8 03:19:47 53° E 03:19:47 53° E 03:24:44 10° NNE
Cosmos 2322 Rocket 3.4 03:14:35 10° N 03:19:49 38° ENE 03:22:54 21° ESE
Meteor 1-27 4.3 03:15:23 10° N 03:21:15 74° E 03:22:09 62° SE
ASTEX 1 3.3 03:19:50 10° N 03:24:42 85° NNW 03:24:42 85° NNW
PSLV R/B 4.3 03:22:13 10° NNE 03:26:21 46° E 03:26:21 46° E
Cosmos 1805 Rocket 3.9 03:27:56 60° NNW 03:27:56 60° NNW 03:31:46 10° N
USA 32 4.2 03:23:14 10° NNW 03:28:21 60° W 03:28:21 60° W
ISS -1.0 03:25:57 10° NNW 03:28:42 25° NNE 03:28:44 25° NNE
Cosmos 1633 Rocket 3.2 03:33:59 71° NNE 03:33:59 71° NNE 03:38:01 10° N
Cosmos 2151 4.3 03:35:12 31° WNW 03:35:12 31° WNW 03:38:22 10° NNW
Cosmos 1707 Rocket 4.2 03:38:18 10° NNW 03:41:44 47° NW 03:41:44 47° NW
Aureole 1 Rocket 4.3 03:38:04 10° NW 03:42:30 42° W 03:42:30 42° W
Cosmos 2242 Rocket 3.6 03:38:29 10° N 03:42:37 76° NNE 03:42:37 76° NNE
Cosmos 1666 Rocket 3.9 03:45:22 55° NW 03:45:22 55° NW 03:49:09 10° N
Cosmos 1980 Rocket 2.4 03:42:29 10° NNW 03:47:48 51° WSW 03:47:48 51° WSW
SL-14 R/B 4.0 03:49:04 47° NNW 03:49:04 47° NNW 03:52:01 10° N
NPP 4.4 03:43:10 10° NNE 03:48:18 43° E 03:49:33 37° SE
Cosmos 2360 Rocket 4.2 03:43:52 10° N 03:48:26 25° NE 03:53:00 10° ESE
Cosmos 1386 Rocket 4.4 03:51:17 54° S 03:52:51 84° E 03:59:01 10° N
CZ-2C R/B 3.8 03:52:54 40° W 03:52:54 40° W 03:58:15 10° NNW
Cosmos 1538 Rocket 3.8 03:49:46 10° NNW 03:55:01 77° WSW 03:55:30 70° SSW
Cosmos 1470 Rocket 3.6 03:55:34 68° ESE 03:55:42 68° E 04:00:05 10° NNE
Cosmos 371 Rocket 3.2 03:52:38 10° NNW 03:57:25 71° W 03:57:25 71° W
JB-3 4.5 03:54:29 10° NNE 03:58:06 71° NE 03:58:06 71° NE
Cosmos 1703 3.5 04:00:03 69° N 04:00:03 69° N 04:03:34 10° N
Cosmos 1933 Rocket 3.5 03:59:51 72° ESE 03:59:59 73° E 04:04:24 10° NNE
Lacrosse 5 3.4 03:55:32 10° WNW 03:57:41 22° WNW 03:57:41 22° WNW
Cosmos 1271 Rocket 3.1 03:57:02 10° N 04:00:33 57° ENE 04:00:33 57° ENE
Meteor 1-4 Rocket 3.1 03:57:47 10° N 04:01:21 60° ENE 04:01:21 60° ENE
USA 215 3.5 03:56:34 10° NE 04:02:59 56° SE 04:04:48 43° S
IRAS Rocket 4.1 03:58:10 10° NNE 04:03:42 84° ESE 04:04:55 56° S
Cosmos 1777 Rocket 3.9 04:04:38 63° SSW 04:05:31 87° ESE 04:10:51 10° NNE
Cosmos 773 Rocket 4.0 04:01:29 10° NNW 04:06:39 77° ENE 04:08:16 44° SSE
Cosmos 1697 Rocket 4.3 04:02:36 10° NW 04:05:42 20° W 04:05:42 20° W
Cosmos 1680 Rocket 4.3 04:01:46 10° N 04:06:48 47° ENE 04:10:22 18° SE
ERS-2 2.4 04:03:45 10° NNE 04:07:08 66° ENE 04:07:08 66° ENE
Cosmos 1745 Rocket 4.3 04:06:10 44° SW 04:07:43 55° W 04:13:56 10° N
Sich 1 3.9 04:10:21 36° WNW 04:10:21 36° WNW 04:14:21 10° N
Cosmos 2082 Rocket 4.5 04:07:38 10° W 04:10:38 14° NW 04:13:39 10° NNW
Nadezhda 1 Rocket 4.0 04:07:40 10° NNW 04:13:41 58° W 04:15:05 47° SW
ATLAS 5 CENTAUR R/B 1.9 04:14:17 54° SSE 04:15:03 61° ESE 04:20:10 10° NE
Resurs 1-4 Rocket 4.2 04:13:42 10° NE 04:17:27 19° E 04:21:12 10° SE
Cosmos 1709 Rocket 4.0 04:16:36 41° S 04:19:02 83° E 04:25:18 10° N
CBERS-1 4.1 04:14:38 10° NNE 04:19:45 70° ESE 04:21:15 45° S
SL-16 R/B 4.2 04:14:51 10° SE 04:20:15 32° ENE 04:25:41 10° N
Cosmos 1346 4.4 04:24:13 36° E 04:24:13 36° E 04:26:48 10° NNE
IRS-P3 4.1 04:19:52 10° N 04:25:12 73° WNW 04:26:41 48° SW
ARIANE 5 R/B 3.9 04:21:59 10° NE 04:26:28 31° E 04:29:16 19° SE
AQUA 3.7 04:26:20 10° NNE 04:31:06 89° NW 04:32:22 50° SSW
Cosmos 1726 4.3 04:29:01 10° NW 04:30:23 16° WNW 04:30:23 16° WNW
Lacrosse 5 rocket 2.0 04:28:58 10° NW 04:32:16 42° W 04:32:16 42° W
CENTAUR R/B 4.1 04:29:31 14° W 04:33:53 27° NW 04:39:44 10° NNE
Cosmos 1862 Rocket 3.6 04:31:50 10° NNW 04:36:13 57° W 04:36:44 53° SW
Cosmos 1933 3.9 04:34:25 10° N 04:38:23 54° E 04:40:08 29° SE
Cosmos 1833 4.2 04:39:42 37° SSW 04:42:04 79° ESE 04:47:50 10° NNE
COSMOS 2428 4.4 04:38:42 10° N 04:43:48 33° ENE 04:48:52 10° ESE
Cosmos 1455 2.6 04:41:10 10° NNW 04:44:39 45° W 04:44:39 45° W
Okean O Rocket 4.2 04:44:19 10° ENE 04:46:24 13° E 04:48:28 10° ESE
ATLAS CENTAUR R/B 3.3 04:42:57 10° NNW 04:47:16 34° NE 04:51:16 10° ESE
ADEOS 3.5 04:43:19 10° NNE 04:48:35 89° W 04:50:54 35° SSW
USA 161 2.4 04:49:42 38° NNE 04:49:42 38° NNE 04:51:22 10° N
SAR-Lupe-3 4.5 04:52:40 58° SW 04:52:54 60° WSW 04:56:27 10° NNW
Cosmos 1626 2.9 04:53:17 35° W 04:53:28 35° WNW 04:56:56 10° N
SL-16 R/B 2.7 04:48:21 10° NW 04:53:35 39° WSW 04:55:02 33° SW
Cosmos 2292 Rocket 3.1 04:54:55 50° W 04:55:05 51° W 04:58:45 10° N
H-2A ROCKET BODY 3.5 04:59:05 14° SSE 04:59:05 14° SSE 04:59:40 10° SE
Cosmos 2150 Rocket 4.5 04:55:09 25° S 04:58:11 57° ESE 05:03:28 10° NNE
Cosmos 1869 Rocket 3.5 04:59:24 33° S 05:01:20 86° E 05:05:48 10° N
Cosmos 2112 Rocket 3.9 04:57:07 10° NNW 05:02:16 63° WSW 05:05:30 23° S
Cosmos 2322 Rocket 3.0 04:58:53 10° NW 05:03:41 29° WSW 05:04:39 28° WSW
USA 229 DEB 3.8 05:01:49 25° SSW 05:06:03 72° ESE 05:13:01 10° NE
USA 229 3.8 05:01:55 25° SSW 05:06:09 71° ESE 05:13:07 10° NE
Cosmos 2221 Rocket 3.5 05:02:34 10° NNW 05:07:05 73° W 05:09:35 26° S
SL-08 R/B 4.1 05:06:12 30° WSW 05:07:18 34° W 05:11:45 10° NNW
GENESIS II 4.2 05:03:44 10° NW 05:07:49 63° WSW 05:10:45 17° SSE
Cosmos 2219 Rocket 4.4 05:04:31 10° N 05:09:12 26° NE 05:13:50 10° ESE
Cosmos 389 Rocket 4.5 05:10:19 10° NNE 05:13:38 30° ENE 05:16:55 10° SE
CZ-2D R/B 2.4 05:09:10 10° NNE 05:14:24 63° ESE 05:18:41 16° S
Meteor 2-3 Rocket 4.1 05:15:29 13° S 05:20:34 67° E 05:26:21 10° NNE
UNKNOWN OBJECT B 3.1 05:25:49 10° NNE 05:29:38 62° E 05:32:49 15° S
Cosmos 1703 Rocket 4.2 05:27:43 10° NNW 05:31:40 35° W 05:33:42 23° SW
Cosmos 1733 Rocket 4.0 05:27:33 10° SSE 05:31:43 47° E 05:35:55 10° NNE
SL-08 ROCKET BODY 4.4 05:27:08 17° SSW 05:31:56 74° W 05:38:07 10° N
Nadezhda 3 Rocket 4.4 05:26:28 10° N 05:32:34 63° E 05:38:38 10° SSE
Cosmos 2360 Rocket 2.4 05:27:17 10° NW 05:32:42 49° WSW 05:38:05 10° S
Cosmos 2227 Rocket 3.8 05:32:07 10° SSE 05:36:58 30° ESE 05:41:49 10° NE
Cosmos 2154 Rocket 4.3 05:30:59 10° S 05:37:16 73° E 05:43:37 10° N
Cosmos 1610 Rocket 4.5 05:31:50 13° S 05:37:31 80° W 05:43:47 10° N
In-Cosmos 22 Rocket 4.1 05:33:08 15° SSW 05:37:36 82° W 05:43:03 10° N
Cosmos 990 Rocket 4.3 05:33:44 12° S 05:38:25 63° ESE 05:43:31 10° NNE
H-2A R/B 3.9 05:35:20 16° WSW 05:40:20 51° S 06:15:53 10° ESE
Cosmos 2298 Rocket 4.4 05:37:10 19° SW 05:40:45 51° WNW 05:45:58 10° N
OAO 3 Rocket 4.0 05:42:21 18° WSW 05:44:55 29° SSW 05:48:57 10° SE
USA 215 4.0 05:39:41 10° NE 05:45:52 46° NNW 05:52:02 10° WSW
Cosmos 2074 Rocket 4.4 05:41:42 17° SW 05:46:21 46° WNW 05:52:20 10° N
CZ-4B R/B 4.0 05:41:21 10° NNE 05:46:41 49° E 05:52:03 10° S
Okean 1-7 3.6 05:43:39 10° NNW 05:47:43 38° W 05:51:01 14° SSW
Cosmos 2333 4.2 05:45:52 10° NNW 05:51:34 88° ENE 05:57:16 10° SSE
SME Rocket 3.6 05:45:46 10° SSE 05:52:16 85° WSW 05:56:45 10° NNW
USA 129 3.7 05:53:23 10° NW 05:53:23 10° NW 05:53:25 10° NW
Cosmos 2219 3.6 05:48:27 16° SW 05:52:53 51° WNW 05:58:30 10° NNE
EO 1 Del DPAF 4.2 05:50:42 16° SSW 05:53:04 29° W 05:56:30 10° NW
Cosmos 2322 4.4 05:49:44 10° NW 05:54:47 33° WSW 05:59:48 10° SSW
GPS 2-05 Rocket1 3.6 05:53:16 18° WSW 05:55:02 29° S 05:58:01 10° SE
Resurs 1-4 Rocket 2.4 05:52:25 10° N 05:57:35 52° WNW 06:02:26 11° SW
CZ-2C R/B 3.7 05:53:48 10° SSE 05:58:18 90° WNW 06:02:54 10° NNW
Sich 1 Rocket 4.2 05:54:35 10° S 05:58:52 57° E 06:03:11 10° NNE
ATLAS 5 CENTAUR R/B 3.7 05:56:22 10° W 06:00:13 22° NW 06:04:18 10° N
Coronas F rocket 2.6 05:58:15 10° SSE 06:00:49 40° E 06:03:26 10° NNE
CZ-3 Stage 3 3.5 05:57:58 10° WSW 06:03:02 21° SSW 06:05:34 10° SSE
SL-16 R/B 3.0 05:57:49 10° SSW 06:03:41 42° W 06:09:36 10° NNW
Cosmos 292 Rocket 3.8 05:59:06 10° NNW 06:03:50 59° WSW 06:08:30 10° S
UNK 4.4 06:00:05 10° SSW 06:04:15 35° W 06:08:27 10° NNW
ARIANE 5 R/B 3.6 06:01:08 10° N 06:05:31 30° WNW 06:09:37 11° SW
FALCON 9 R/B 1.7 06:05:09 16° SW 06:06:03 19° S 06:07:57 10° SE
PSLV R/B 3.8 06:04:02 10° N 06:08:01 82° WNW 06:12:04 10° SSW
Cosmos 1908 Rocket 4.3 06:04:40 10° S 06:08:59 54° E 06:13:16 10° NNE
Iridium 4 Rocket 4.1 06:05:02 10° N 06:09:06 45° E 06:13:05 10° SSE
Cosmos 2297 Rocket 3.5 06:04:22 10° S 06:09:34 39° ESE 06:14:48 10° NE
BREEZE-M DEB (TANK) 1.3 06:08:45 10° WNW 06:11:23 81° NNE 06:13:43 10° ESE
CZ-4B DEB 4.4 06:09:29 10° NNE 06:15:01 78° ESE 06:20:32 10° S
Cosmos 1674 Rocket 3.5 06:10:58 10° N 06:15:18 76° W 06:19:37 10° S
Thor Agena Rocket 3.6 06:10:45 10° S 06:16:02 79° WSW 06:21:21 10° NNW
Cosmos 1606 3.8 06:13:38 10° N 06:17:18 46° E 06:20:57 10° SSE
Cosmos 2333 Rocket 2.7 06:11:57 10° NNW 06:17:41 70° ENE 06:23:23 10° SSE
SWAS 4.5 06:15:06 10° NNW 06:19:22 61° WSW 06:23:36 10° SSE
Cosmos 1980 4.1 06:14:04 10° NNW 06:19:44 70° ENE 06:25:20 10° SSE
Cosmos 1937 Rocket 4.3 06:15:50 10° SW 06:20:46 38° WNW 06:25:42 10° N
Cosmos 2082 4.0 06:16:35 10° SSW 06:22:15 72° ESE 06:27:59 10° NNE
Cosmos 1782 2.8 06:18:21 10° N 06:22:22 76° W 06:26:20 10° S
Cosmos 1125 Rocket 3.9 06:17:14 10° S 06:22:27 68° ESE 06:27:44 10° NNE
Okean O Rocket 1.9 06:18:47 10° N 06:23:06 54° WNW 06:27:22 10° SSW
Cosmos 1408 4.1 06:21:42 10° SSE 06:25:08 38° E 06:28:36 10° NNE
ATLAS CENTAUR R/B 2.5 06:22:27 10° NW 06:26:12 26° WSW 06:29:43 10° SSW
COSMOS 2428 3.3 06:22:56 10° NW 06:28:01 35° WSW 06:33:06 10° SSW
CZ-4B R/B 3.0 06:25:02 10° N 06:29:08 78° WNW 06:33:26 10° SSW
NOSS 3-1 (C) 3.5 06:23:49 10° SSW 06:29:40 90° WNW 06:36:11 10° NE
PAYLOAD B 4.3 06:24:33 10° N 06:30:02 67° WNW 06:35:31 10° SSW
